Altus AFB, OK

3:40 AM CDT on August 17, 2017 (GMT -0500)
Altus Air Force Base

Weather History for KLTS - March, 2013

Change the Weather History Date:

Friday, March 8, 2013

  Actual Average Record
Temperature  
Mean Temperature 56 °F -  
Max Temperature 62 °F 59 °F 82 °F (2002)
Min Temperature 50 °F 34 °F 16 °F (2008)
Degree Days  
Heating Degree Days 9    
Growing Degree Days 6 (Base 50)    
Moisture  
Dew Point 53 °F    
Average Humidity 84    
Maximum Humidity 94    
Minimum Humidity 70    
Precipitation  
Precipitation 0.00 in - - ()
Sea Level Pressure  
Sea Level Pressure 29.94 in    
Wind  
Wind Speed 15 mph (SE)    
Max Wind Speed 24 mph    
Max Gust Speed 32 mph    
Visibility 10 miles    
Events      
Averages and records for this station are not official NWS values.
T = Trace of Precipitation, MM = Missing Value Source: NWS Daily Summary

Daily Weather History Graph

Daily Weather History Graph

Search for Another Location

Airport or City:

Trip Planner

Search our weather history database for the weather conditions in past years. The results will help you decide how hot, cold, wet, or windy it might be!

Date:

Astronomy

Mar. 08, 2013 Rise Set
Actual Time 6:56 AM CST 6:39 PM CST
Civil Twilight 6:31 AM CST 7:04 PM CST
Nautical Twilight 6:02 AM CST 7:33 PM CST
Astronomical Twilight 5:33 AM CST 8:02 PM CST
Moon 4:35 AM CST (3/8) 3:41 PM CST (3/8)
Length of Visible Light 12h 32m
Length of Day
11h 42m
Waning Crescent, 11% of the Moon is Illuminated
Mar 8
Waning Crescent
Mar 11
New
Mar 19
First Quarter
Mar 27
Full
Apr 2
Last Quarter

Hourly Weather History & Observations

Time (CST) Temp. Dew Point Humidity Pressure Visibility Wind Dir Wind Speed Gust Speed Precip Events Conditions
12:58 AM 52.0 °F 42.6 °F 70% 30.02 in 10.0 mi ESE 6.9 mph - N/A   Mostly Cloudy
1:58 AM 52.3 °F 43.2 °F 71% 30.01 in 10.0 mi SE 10.4 mph - N/A   Overcast
2:58 AM 51.8 °F 44.1 °F 75% 29.99 in 10.0 mi SE 9.2 mph - N/A   Mostly Cloudy
3:58 AM 51.3 °F 44.2 °F 77% 29.98 in 10.0 mi SE 12.7 mph - N/A   Mostly Cloudy
4:58 AM 50.9 °F 45.7 °F 82% 29.98 in 10.0 mi SE 10.4 mph - N/A   Overcast
5:58 AM 50.5 °F 46.2 °F 85% 30.00 in 10.0 mi SE 11.5 mph - N/A   Scattered Clouds
6:58 AM 51.1 °F 48.4 °F 90% 30.01 in 10.0 mi SE 8.1 mph - N/A   Partly Cloudy
7:58 AM 53.6 °F 49.8 °F 87% 30.02 in 10.0 mi SE 15.0 mph - N/A   Clear
8:43 AM 55.4 °F 50.0 °F 82% 30.04 in 10.0 mi SE 18.4 mph - N/A   Mostly Cloudy
8:58 AM 55.4 °F 50.7 °F 84% 30.04 in 10.0 mi SE 17.3 mph - N/A   Overcast
9:23 AM 55.4 °F 51.8 °F 88% 30.04 in 10.0 mi SE 16.1 mph - N/A   Overcast
9:58 AM 56.8 °F 52.2 °F 84% 30.03 in 10.0 mi SE 15.0 mph - N/A   Overcast
10:58 AM 57.9 °F 54.1 °F 87% 30.02 in 10.0 mi SE 19.6 mph - N/A   Overcast
11:58 AM 58.8 °F 54.5 °F 86% 30.00 in 10.0 mi SE 19.6 mph - N/A   Overcast
12:58 PM 59.0 °F 54.5 °F 85% 29.97 in 10.0 mi SE 21.9 mph 28.8 mph N/A   Overcast
1:58 PM 59.0 °F 54.7 °F 86% 29.94 in 10.0 mi SE 23.0 mph 27.6 mph N/A   Overcast
2:58 PM 60.8 °F 55.8 °F 83% 29.92 in 10.0 mi SE 20.7 mph 25.3 mph N/A   Overcast
3:38 PM 60.8 °F 57.2 °F 88% 29.92 in 10.0 mi SE 19.6 mph 27.6 mph N/A   Overcast
3:58 PM 61.5 °F 56.3 °F 83% 29.90 in 10.0 mi SE 19.6 mph - N/A   Overcast
4:58 PM 61.3 °F 56.5 °F 84% 29.89 in 10.0 mi SE 18.4 mph - N/A   Overcast
5:43 PM 62.6 °F 57.2 °F 82% 29.90 in 10.0 mi SE 17.3 mph - N/A   Overcast
5:58 PM 62.1 °F 56.8 °F 83% 29.88 in 10.0 mi SSE 23.0 mph 28.8 mph N/A   Overcast
6:38 PM 62.6 °F 57.2 °F 82% 29.89 in 10.0 mi SE 19.6 mph - N/A   Overcast
6:58 PM 61.5 °F 56.7 °F 84% 29.89 in 10.0 mi SE 20.7 mph 27.6 mph N/A   Overcast
7:58 PM 61.0 °F 56.8 °F 86% 29.88 in 10.0 mi SE 20.7 mph 28.8 mph N/A   Overcast
8:58 PM 60.6 °F 57.0 °F 88% 29.86 in 10.0 mi SE 24.2 mph 28.8 mph N/A   Overcast
9:23 PM 60.8 °F 57.2 °F 88% 29.85 in 10.0 mi SE 21.9 mph 27.6 mph N/A   Overcast
9:58 PM 60.8 °F 57.6 °F 89% 29.84 in 10.0 mi SE 24.2 mph 32.2 mph N/A   Overcast
10:58 PM 61.5 °F 58.6 °F 90% 29.86 in 10.0 mi SSE 21.9 mph 28.8 mph N/A   Overcast
11:28 PM 60.8 °F 59.0 °F 94% 29.85 in 10.0 mi SE 18.4 mph 27.6 mph N/A   Overcast
11:58 PM 61.5 °F 59.0 °F 91% 29.82 in 10.0 mi SE 20.7 mph 27.6 mph N/A   Overcast